{"data":{"norad_id":56074,"epoch":"2026-05-25T01:00:04.699584Z","epoch_age_seconds":67845,"freshness":"FRESH","line1":"1 56074U 23043AE  26145.04172106 -.00000079  00000+0 -24471-3 0  9991","line2":"2 56074  87.8999 263.7991 0001489 101.0500 259.0798 13.15549511153363","mean_motion":13.15549511,"eccentricity":0.0001489,"inclination_deg":87.8999,"raan_deg":263.7991,"arg_perigee_deg":101.05,"mean_anomaly_deg":259.0798,"bstar":-0.00024471,"rev_number":15336,"period_min":109.45996239286,"perigee_km":1200.6384283633,"apogee_km":1202.8957237972,"semimajor_km":7579.9040760803,"source":"CELESTRAK","updated_at":"2026-05-25T13:38:22.706230Z"}}